EUTELSAT 3B (39773 NORAD) Tracking and Keplerian Element Data

This shows tracking and keplerian element data for the satellite.

Feedback or suggestion? Click here.




ElementValue
Catalog39773
NameEUTELSAT 3B
Epoch Orbit3665
Epoch Day159.90119
Epoch Year2024
RAAN13.3002
Inclination0.0643
Eccentricity0.0002607
Argument of Perigee89.8989
Mean Anonmoly121.0799
Mean Motion1.00272524
Decay Rate2E-07
L11 39773U 14030A 24159.90119000 .00000020 00000+0 00000+0 0 9998
L22 39773 0.0643 13.3002 0002607 89.8989 121.0799 1.00272524 36651



Live tracking and technical data element details for EUTELSAT 3B (NORAD 39773). EUTELSAT 3B can be tracked NOW for your location showing map with azimuth and elevation plus other details from your city location.







IsCatalogInMostPopularTable: catalog: 39773, numindb: 611
Update: records affected: 1



GetName: 39773 EUTELSAT 3B

Hit Count: updated at: Mon, 17 Jun 2024 23:07:07 GMT